COSMOS 1275 DEB, 12733

Orbit data source: Space-Track

COSMOS 1275 DEB, 12733 is space debris in LEO originally from a launch on Thu, 04 Jun 1981 UTC launched from the Plesetsk Missile And Space Complex (PKMTR). Debris objects in space refer to the collection of defunct objects orbiting the Earth. Examples of debris include non-operational satellites, rocket bodies, and fragments generated from explosions, collisions, or faulty payload assembly.

Loading next visibility...
Identifier
12733, 1981-053CA
Orbit
LEO
Country
Flag of CISCIS
Related business
Manufacturer
Unknown
Mission
Spacecraft
Bus & Motor
Unknown
Mass
Unknown
Launch date (UTC)
1981-06-04 (45 years ago)
Launch vehicle
Unknown
Launch site
Plesetsk Missile And Space Complex (PKMTR)
Object type
Payload
Rocket body
Debris
Shape & HBR
Unknown shape, 0.1 m
Radar Cross Section
Small (<0.1 m²)

Expand to show TLE details & history
Last TLE update: 8 hours ago

TLE from 8 hours ago
0 COSMOS 1275 DEB
1 12733U 81053CA  26036.20135503  .00009006  00000-0  29411-2 0  9993
2 12733  82.8562  15.8684 0016664 319.3573  40.6374 14.38423940277508
Epoch: 2026-02-05T04:49Z
TLE epoch observation values (Epoch: 2026-02-05T04:49:57.074Z)
Latitude
0.00005°
Longitude
168.02362°
Altitude
757.672 km
Speed
7.48 km/s
True Right ascension
01h 03m 28s
True Declination
0° 00' 00"
Sunlit
Object was in daylight at epoch
Visualization orbit readout
Latitude
Unknown
Longitude
Unknown
Altitude
Unknown
Speed
Unknown
Apparent Right ascension
Unknown
Apparent Declination
Unknown
Sunlit
N/A
Visualization observer readout
Local Sidereal Time
14:50:25
Azimuth
Unknown
Elevation
Unknown
Doppler factor
Unknown
Orbital elements
Apogee altitude
772.672 km
Perigee altitude
748.879 km
Semi-major axis
7,138.912 km
Eccentricity
0.00167
Inclination
82.8562°
RAAN
15.8684°
Arg. of periapsis
319.3573°
True anomaly
40.76196°
Mean anomaly
40.6374°
Eccentric anomaly
40.69966°
Mean motion
3.59828 °/min
Orbital period
100.05 mins
BSTAR
0.0029411
Loading maneuver chart data...
Computing Atmospheric mass density...

Documentation

Showing up to 5 results
|